Time,TemperatureF,DewpointF,PressureIn,WindDirection,WindDirectionDegrees,WindSpeedMPH,WindSpeedGustMPH,Humidity,HourlyPrecipIn,Conditions,Clouds,dailyrainin,SoftwareType,DateUTC
2013-03-31 00:00:00,59.9,24.9,29.99,WNW,293,0.0,0.0,26,0.00,,,0.00,Wunderground v.1.15,2013-03-31 06:00:00,
2013-03-31 00:05:00,59.5,24.5,29.99,WNW,292,0.0,0.0,26,0.00,,,0.00,Wunderground v.1.15,2013-03-31 06:05:00,
2013-03-31 00:10:00,59.0,25.0,29.99,WNW,292,0.0,0.0,27,0.00,,,0.00,Wunderground v.1.15,2013-03-31 06:10:00,
2013-03-31 00:15:00,58.6,24.7,29.99,WNW,293,0.0,0.0,27,0.00,,,0.00,Wunderground v.1.15,2013-03-31 06:15:00,
2013-03-31 00:20:00,57.9,25.0,29.99,WNW,292,0.0,0.0,28,0.00,,,0.00,Wunderground v.1.15,2013-03-31 06:20:00,
2013-03-31 00:25:00,57.4,24.5,29.99,WNW,292,0.0,0.0,28,0.00,,,0.00,Wunderground v.1.15,2013-03-31 06:25:00,
2013-03-31 00:30:00,56.9,24.9,29.99,WNW,292,0.0,1.0,29,0.00,,,0.00,Wunderground v.1.15,2013-03-31 06:30:00,
2013-03-31 00:35:00,56.4,25.3,29.99,WNW,292,0.0,1.0,30,0.00,,,0.00,Wunderground v.1.15,2013-03-31 06:35:00,
2013-03-31 00:40:00,56.0,25.0,29.99,WNW,292,0.0,0.0,30,0.00,,,0.00,Wunderground v.1.15,2013-03-31 06:40:00,
2013-03-31 00:45:00,55.8,24.8,29.99,WNW,292,0.0,0.0,30,0.00,,,0.00,Wunderground v.1.15,2013-03-31 06:45:00,
2013-03-31 00:50:00,55.5,24.5,29.99,WNW,292,0.0,0.0,30,0.00,,,0.00,Wunderground v.1.15,2013-03-31 06:50:00,
2013-03-31 00:55:00,55.2,25.1,29.99,WNW,292,0.0,0.0,31,0.00,,,0.00,Wunderground v.1.15,2013-03-31 06:55:00,
2013-03-31 01:00:00,54.9,24.8,29.99,WNW,292,0.0,0.0,31,0.00,,,0.00,Wunderground v.1.15,2013-03-31 07:00:00,
2013-03-31 01:05:00,54.6,24.5,29.99,WNW,292,0.0,0.0,31,0.00,,,0.00,Wunderground v.1.15,2013-03-31 07:05:00,
2013-03-31 01:10:00,54.3,24.3,29.99,WNW,292,0.0,0.0,31,0.00,,,0.00,Wunderground v.1.15,2013-03-31 07:10:00,
2013-03-31 01:15:00,54.1,24.9,29.99,WNW,292,0.0,0.0,32,0.00,,,0.00,Wunderground v.1.15,2013-03-31 07:15:00,
2013-03-31 01:20:00,53.9,24.7,29.99,WNW,292,0.0,0.0,32,0.00,,,0.00,Wunderground v.1.15,2013-03-31 07:20:00,
2013-03-31 01:25:00,53.8,23.8,30.00,WNW,292,0.0,0.0,31,0.00,,,0.00,Wunderground v.1.15,2013-03-31 07:25:00,
2013-03-31 01:30:00,53.5,24.3,29.99,WNW,293,0.0,0.0,32,0.00,,,0.00,Wunderground v.1.15,2013-03-31 07:30:00,
2013-03-31 01:35:00,53.2,24.8,29.99,WNW,292,0.0,0.0,33,0.00,,,0.00,Wunderground v.1.15,2013-03-31 07:35:00,
2013-03-31 01:40:00,53.3,24.2,29.99,WNW,292,0.0,0.0,32,0.00,,,0.00,Wunderground v.1.15,2013-03-31 07:40:00,
2013-03-31 01:45:00,53.2,24.8,29.99,WNW,292,0.0,0.0,33,0.00,,,0.00,Wunderground v.1.15,2013-03-31 07:45:00,
2013-03-31 01:50:00,52.9,24.5,29.99,WNW,292,0.0,0.0,33,0.00,,,0.00,Wunderground v.1.15,2013-03-31 07:50:00,
2013-03-31 01:55:00,52.7,24.4,29.99,WNW,292,0.0,0.0,33,0.00,,,0.00,Wunderground v.1.15,2013-03-31 07:55:00,
2013-03-31 02:00:00,52.4,24.8,29.99,WNW,292,0.0,0.0,34,0.00,,,0.00,Wunderground v.1.15,2013-03-31 08:00:00,
2013-03-31 02:10:00,52.0,25.2,29.99,WNW,292,0.0,0.0,35,0.00,,,0.00,Wunderground v.1.15,2013-03-31 08:10:00,
2013-03-31 02:15:00,51.6,24.1,29.99,WNW,292,0.0,0.0,34,0.00,,,0.00,Wunderground v.1.15,2013-03-31 08:15:00,
2013-03-31 02:20:00,51.3,23.8,29.99,WNW,292,0.0,0.0,34,0.00,,,0.00,Wunderground v.1.15,2013-03-31 08:20:00,
2013-03-31 02:25:00,51.1,24.4,29.99,WNW,292,0.0,0.0,35,0.00,,,0.00,Wunderground v.1.15,2013-03-31 08:25:00,
2013-03-31 02:30:00,50.7,24.0,29.99,WNW,292,0.0,0.0,35,0.00,,,0.00,Wunderground v.1.15,2013-03-31 08:30:00,
2013-03-31 02:35:00,50.5,24.5,29.99,WNW,292,0.0,0.0,36,0.00,,,0.00,Wunderground v.1.15,2013-03-31 08:35:00,
2013-03-31 02:40:00,50.1,24.8,29.99,WNW,292,0.0,0.0,37,0.00,,,0.00,Wunderground v.1.15,2013-03-31 08:40:00,
2013-03-31 02:45:00,50.0,24.1,29.99,WNW,292,0.0,0.0,36,0.00,,,0.00,Wunderground v.1.15,2013-03-31 08:45:00,
2013-03-31 02:50:00,49.8,24.5,29.99,WNW,293,0.0,0.0,37,0.00,,,0.00,Wunderground v.1.15,2013-03-31 08:50:00,
2013-03-31 02:55:00,49.6,24.4,29.99,WNW,292,0.0,0.0,37,0.00,,,0.00,Wunderground v.1.15,2013-03-31 08:55:00,
2013-03-31 03:00:00,49.5,24.9,29.99,WNW,292,0.0,0.0,38,0.00,,,0.00,Wunderground v.1.15,2013-03-31 09:00:00,
2013-03-31 03:10:00,49.3,24.7,29.99,WNW,292,0.0,0.0,38,0.00,,,0.00,Wunderground v.1.15,2013-03-31 09:10:00,
2013-03-31 03:15:00,49.2,24.6,29.99,WNW,292,0.0,0.0,38,0.00,,,0.00,Wunderground v.1.15,2013-03-31 09:15:00,
2013-03-31 03:20:00,49.0,24.5,29.99,WNW,292,0.0,0.0,38,0.00,,,0.00,Wunderground v.1.15,2013-03-31 09:20:00,
2013-03-31 03:25:00,48.9,24.4,29.99,WNW,292,0.0,0.0,38,0.00,,,0.00,Wunderground v.1.15,2013-03-31 09:25:00,
2013-03-31 03:30:00,48.8,24.3,29.99,WNW,292,0.0,0.0,38,0.00,,,0.00,Wunderground v.1.15,2013-03-31 09:30:00,
2013-03-31 03:35:00,48.5,24.6,29.99,WNW,292,0.0,0.0,39,0.00,,,0.00,Wunderground v.1.15,2013-03-31 09:35:00,
2013-03-31 03:40:00,48.2,24.4,29.99,WNW,292,0.0,0.0,39,0.00,,,0.00,Wunderground v.1.15,2013-03-31 09:40:00,
2013-03-31 03:45:00,47.9,24.7,29.98,WNW,292,0.0,0.0,40,0.00,,,0.00,Wunderground v.1.15,2013-03-31 09:45:00,
2013-03-31 03:50:00,47.9,24.7,29.98,WNW,292,0.0,0.0,40,0.00,,,0.00,Wunderground v.1.15,2013-03-31 09:50:00,
2013-03-31 03:55:00,47.8,24.6,29.98,WNW,292,0.0,0.0,40,0.00,,,0.00,Wunderground v.1.15,2013-03-31 09:55:00,
2013-03-31 04:00:00,47.8,24.6,29.98,WNW,292,0.0,0.0,40,0.00,,,0.00,Wunderground v.1.15,2013-03-31 10:00:00,
2013-03-31 04:05:00,48.2,25.6,29.98,WNW,292,0.0,0.0,41,0.00,,,0.00,Wunderground v.1.15,2013-03-31 10:05:00,
2013-03-31 04:10:00,48.4,24.6,29.98,WNW,292,0.0,0.0,39,0.00,,,0.00,Wunderground v.1.15,2013-03-31 10:10:00,
2013-03-31 04:15:00,48.6,24.7,29.98,WNW,292,0.0,0.0,39,0.00,,,0.00,Wunderground v.1.15,2013-03-31 10:15:00,
2013-03-31 04:20:00,48.7,24.8,29.98,WNW,292,0.0,0.0,39,0.00,,,0.00,Wunderground v.1.15,2013-03-31 10:20:00,
2013-03-31 04:25:00,48.8,24.9,29.98,WNW,292,0.0,0.0,39,0.00,,,0.00,Wunderground v.1.15,2013-03-31 10:25:00,
2013-03-31 04:30:00,49.0,25.1,29.98,WNW,292,0.0,0.0,39,0.00,,,0.00,Wunderground v.1.15,2013-03-31 10:30:00,
2013-03-31 04:35:00,49.2,25.3,29.98,WNW,292,0.0,0.0,39,0.00,,,0.00,Wunderground v.1.15,2013-03-31 10:35:00,
2013-03-31 04:40:00,49.5,24.9,29.98,WNW,292,0.0,0.0,38,0.00,,,0.00,Wunderground v.1.15,2013-03-31 10:40:00,
2013-03-31 04:45:00,49.6,25.0,29.98,WNW,292,0.0,0.0,38,0.00,,,0.00,Wunderground v.1.15,2013-03-31 10:45:00,
2013-03-31 04:50:00,49.7,25.1,29.98,WNW,293,0.0,0.0,38,0.00,,,0.00,Wunderground v.1.15,2013-03-31 10:50:00,
2013-03-31 04:55:00,50.1,24.8,29.98,WNW,292,0.0,0.0,37,0.00,,,0.00,Wunderground v.1.15,2013-03-31 10:55:00,
2013-03-31 05:00:00,50.7,25.3,29.99,WNW,292,0.0,0.0,37,0.00,,,0.00,Wunderground v.1.15,2013-03-31 11:00:00,
2013-03-31 05:05:00,50.9,25.5,29.99,WNW,292,0.0,0.0,37,0.00,,,0.00,Wunderground v.1.15,2013-03-31 11:05:00,
2013-03-31 05:15:00,50.9,25.5,29.99,WNW,292,0.0,0.0,37,0.00,,,0.00,Wunderground v.1.15,2013-03-31 11:15:00,
2013-03-31 05:20:00,51.1,25.7,29.99,WNW,292,0.0,0.0,37,0.00,,,0.00,Wunderground v.1.15,2013-03-31 11:20:00,
2013-03-31 05:25:00,51.1,25.7,29.99,WNW,292,0.0,0.0,37,0.00,,,0.00,Wunderground v.1.15,2013-03-31 11:25:00,
2013-03-31 05:30:00,51.1,25.7,29.98,WNW,292,0.0,0.0,37,0.00,,,0.00,Wunderground v.1.15,2013-03-31 11:30:00,
2013-03-31 05:35:00,52.5,26.3,29.98,ESE,110,1.0,1.0,36,0.00,,,0.00,Wunderground v.1.15,2013-03-31 11:35:00,
2013-03-31 05:40:00,54.2,27.8,29.99,ESE,113,2.0,2.0,36,0.00,,,0.00,Wunderground v.1.15,2013-03-31 11:40:00,
2013-03-31 05:45:00,54.8,28.3,29.99,SE,140,2.0,2.0,36,0.00,,,0.00,Wunderground v.1.15,2013-03-31 11:45:00,
2013-03-31 05:50:00,55.1,28.6,29.98,ESE,107,2.0,2.0,36,0.00,,,0.00,Wunderground v.1.15,2013-03-31 11:50:00,
2013-03-31 05:55:00,55.1,27.9,29.99,ESE,113,2.0,2.0,35,0.00,,,0.00,Wunderground v.1.15,2013-03-31 11:55:00,
2013-03-31 06:00:00,55.0,28.5,29.99,SE,124,2.0,2.0,36,0.00,,,0.00,Wunderground v.1.15,2013-03-31 12:00:00,
2013-03-31 06:05:00,55.0,28.5,29.99,SE,127,2.0,2.0,36,0.00,,,0.00,Wunderground v.1.15,2013-03-31 12:05:00,
2013-03-31 06:10:00,54.8,29.0,29.99,East,98,3.0,3.0,37,0.00,,,0.00,Wunderground v.1.15,2013-03-31 12:10:00,
2013-03-31 06:15:00,54.6,28.8,29.99,SE,130,2.0,3.0,37,0.00,,,0.00,Wunderground v.1.15,2013-03-31 12:15:00,
2013-03-31 06:20:00,54.2,29.1,29.99,ESE,117,2.0,2.0,38,0.00,,,0.00,Wunderground v.1.15,2013-03-31 12:20:00,
2013-03-31 06:25:00,54.0,29.6,29.99,SE,126,3.0,3.0,39,0.00,,,0.00,Wunderground v.1.15,2013-03-31 12:25:00,
2013-03-31 06:30:00,53.7,29.3,29.99,ESE,119,4.0,4.0,39,0.00,,,0.00,Wunderground v.1.15,2013-03-31 12:30:00,
2013-03-31 06:35:00,53.5,29.7,29.99,ESE,111,3.0,11.0,40,0.00,,,0.00,Wunderground v.1.15,2013-03-31 12:35:00,
2013-03-31 06:40:00,53.3,29.6,30.00,SE,126,5.0,5.0,40,0.00,,,0.00,Wunderground v.1.15,2013-03-31 12:40:00,
2013-03-31 06:45:00,53.2,29.5,30.00,ESE,117,5.0,5.0,40,0.00,,,0.00,Wunderground v.1.15,2013-03-31 12:45:00,
2013-03-31 06:50:00,53.0,29.9,30.00,SE,124,3.0,6.0,41,0.00,,,0.00,Wunderground v.1.15,2013-03-31 12:50:00,
2013-03-31 06:55:00,52.8,30.3,30.00,East,86,4.0,6.0,42,0.00,,,0.00,Wunderground v.1.15,2013-03-31 12:55:00,
2013-03-31 07:00:00,52.5,30.0,30.00,SE,128,5.0,5.0,42,0.00,,,0.00,Wunderground v.1.15,2013-03-31 13:00:00,
2013-03-31 07:05:00,52.4,30.0,30.00,SE,124,4.0,5.0,42,0.00,,,0.00,Wunderground v.1.15,2013-03-31 13:05:00,
2013-03-31 07:10:00,52.3,30.4,30.00,East,96,3.0,7.0,43,0.00,,,0.00,Wunderground v.1.15,2013-03-31 13:10:00,
2013-03-31 07:20:00,52.2,30.4,30.01,ESE,122,2.0,5.0,43,0.00,,,0.00,Wunderground v.1.15,2013-03-31 13:20:00,
2013-03-31 07:25:00,52.3,30.4,30.01,ESE,111,3.0,5.0,43,0.00,,,0.00,Wunderground v.1.15,2013-03-31 13:25:00,
2013-03-31 07:30:00,52.5,30.6,30.01,ESE,111,4.0,4.0,43,0.00,,,0.00,Wunderground v.1.15,2013-03-31 13:30:00,
2013-03-31 07:35:00,52.8,30.3,30.02,East,99,4.0,4.0,42,0.00,,,0.00,Wunderground v.1.15,2013-03-31 13:35:00,
2013-03-31 07:40:00,52.9,31.0,30.02,ESE,116,3.0,5.0,43,0.00,,,0.00,Wunderground v.1.15,2013-03-31 13:40:00,
2013-03-31 07:45:00,52.9,31.0,30.02,ESE,121,3.0,5.0,43,0.00,,,0.00,Wunderground v.1.15,2013-03-31 13:45:00,
2013-03-31 07:50:00,53.0,31.1,30.02,ESE,102,4.0,4.0,43,0.00,,,0.00,Wunderground v.1.15,2013-03-31 13:50:00,
2013-03-31 08:00:00,53.7,31.1,30.02,ESE,105,4.0,4.0,42,0.00,,,0.00,Wunderground v.1.15,2013-03-31 14:00:00,
2013-03-31 08:05:00,53.9,31.3,30.02,SE,133,4.0,4.0,42,0.00,,,0.00,Wunderground v.1.15,2013-03-31 14:05:00,
2013-03-31 08:10:00,54.2,31.6,30.02,ESE,121,3.0,6.0,42,0.00,,,0.00,Wunderground v.1.15,2013-03-31 14:10:00,
2013-03-31 08:15:00,54.2,31.6,30.02,ESE,111,4.0,7.0,42,0.00,,,0.00,Wunderground v.1.15,2013-03-31 14:15:00,
2013-03-31 08:20:00,54.3,31.7,30.02,East,92,5.0,9.0,42,0.00,,,0.00,Wunderground v.1.15,2013-03-31 14:20:00,
2013-03-31 08:25:00,54.7,31.4,30.02,ESE,114,5.0,9.0,41,0.00,,,0.00,Wunderground v.1.15,2013-03-31 14:25:00,
2013-03-31 08:30:00,55.3,31.4,30.02,SE,135,4.0,14.0,40,0.00,,,0.00,Wunderground v.1.15,2013-03-31 14:30:00,
2013-03-31 08:35:00,55.9,31.3,30.02,SE,132,3.0,14.0,39,0.00,,,0.00,Wunderground v.1.15,2013-03-31 14:35:00,
2013-03-31 08:40:00,56.4,31.1,30.02,SSE,156,3.0,3.0,38,0.00,,,0.00,Wunderground v.1.15,2013-03-31 14:40:00,
2013-03-31 08:45:00,57.0,31.6,30.02,ESE,111,3.0,3.0,38,0.00,,,0.00,Wunderground v.1.15,2013-03-31 14:45:00,
2013-03-31 08:50:00,57.5,31.4,30.02,SE,136,3.0,3.0,37,0.00,,,0.00,Wunderground v.1.15,2013-03-31 14:50:00,
2013-03-31 08:55:00,58.1,31.3,30.02,SE,136,3.0,3.0,36,0.00,,,0.00,Wunderground v.1.15,2013-03-31 14:55:00,
2013-03-31 09:00:00,59.0,31.4,30.02,ESE,116,1.0,1.0,35,0.00,,,0.00,Wunderground v.1.15,2013-03-31 15:00:00,
2013-03-31 09:05:00,59.6,31.2,30.02,ESE,116,1.0,1.0,34,0.00,,,0.00,Wunderground v.1.15,2013-03-31 15:05:00,
2013-03-31 09:10:00,60.2,31.7,30.02,SSE,151,1.0,1.0,34,0.00,,,0.00,Wunderground v.1.15,2013-03-31 15:10:00,
2013-03-31 09:15:00,60.4,30.4,30.02,ESE,116,2.0,6.0,32,0.00,,,0.00,Wunderground v.1.15,2013-03-31 15:15:00,
2013-03-31 09:20:00,60.0,29.2,30.02,North,350,3.0,4.0,31,0.00,,,0.00,Wunderground v.1.15,2013-03-31 15:20:00,
2013-03-31 09:25:00,60.0,30.8,30.02,NNE,29,2.0,4.0,33,0.00,,,0.00,Wunderground v.1.15,2013-03-31 15:25:00,
2013-03-31 09:30:00,60.8,31.5,30.02,ESE,109,1.0,3.0,33,0.00,,,0.00,Wunderground v.1.15,2013-03-31 15:30:00,
2013-03-31 09:35:00,61.4,31.3,30.02,SSE,158,1.0,3.0,32,0.00,,,0.00,Wunderground v.1.15,2013-03-31 15:35:00,
2013-03-31 09:40:00,62.0,31.0,30.02,SE,130,2.0,2.0,31,0.00,,,0.00,Wunderground v.1.15,2013-03-31 15:40:00,
2013-03-31 09:45:00,62.5,31.4,30.02,SE,127,1.0,2.0,31,0.00,,,0.00,Wunderground v.1.15,2013-03-31 15:45:00,
2013-03-31 09:50:00,62.8,30.9,30.02,SE,143,1.0,4.0,30,0.00,,,0.00,Wunderground v.1.15,2013-03-31 15:50:00,
2013-03-31 09:55:00,62.9,31.0,30.02,SE,132,2.0,4.0,30,0.00,,,0.00,Wunderground v.1.15,2013-03-31 15:55:00,
2013-03-31 10:00:00,63.2,30.4,30.02,SE,138,1.0,1.0,29,0.00,,,0.00,Wunderground v.1.15,2013-03-31 16:00:00,
2013-03-31 10:05:00,63.5,31.5,30.02,SSE,165,1.0,1.0,30,0.00,,,0.00,Wunderground v.1.15,2013-03-31 16:05:00,
2013-03-31 10:10:00,63.5,30.6,30.02,SE,143,1.0,1.0,29,0.00,,,0.00,Wunderground v.1.15,2013-03-31 16:10:00,
2013-03-31 10:15:00,63.7,30.8,30.02,SSW,196,2.0,2.0,29,0.00,,,0.00,Wunderground v.1.15,2013-03-31 16:15:00,
2013-03-31 10:20:00,63.9,31.0,30.02,South,181,2.0,2.0,29,0.00,,,0.00,Wunderground v.1.15,2013-03-31 16:20:00,
2013-03-31 10:25:00,63.3,30.5,30.02,East,86,1.0,2.0,29,0.00,,,0.00,Wunderground v.1.15,2013-03-31 16:25:00,
2013-03-31 10:30:00,63.7,30.8,30.02,SE,133,2.0,2.0,29,0.00,,,0.00,Wunderground v.1.15,2013-03-31 16:30:00,
2013-03-31 10:35:00,64.1,30.3,30.02,SW,234,1.0,5.0,28,0.00,,,0.00,Wunderground v.1.15,2013-03-31 16:35:00,
2013-03-31 10:40:00,64.3,30.5,30.02,WSW,248,2.0,2.0,28,0.00,,,0.00,Wunderground v.1.15,2013-03-31 16:40:00,
2013-03-31 10:45:00,65.0,31.1,30.02,WSW,250,2.0,2.0,28,0.00,,,0.00,Wunderground v.1.15,2013-03-31 16:45:00,
2013-03-31 10:50:00,65.2,30.3,30.02,WSW,255,1.0,1.0,27,0.00,,,0.00,Wunderground v.1.15,2013-03-31 16:50:00,
2013-03-31 10:55:00,64.3,30.5,30.01,NNW,347,2.0,2.0,28,0.00,,,0.00,Wunderground v.1.15,2013-03-31 16:55:00,
2013-03-31 11:00:00,64.9,31.0,30.02,SSE,153,2.0,2.0,28,0.00,,,0.00,Wunderground v.1.15,2013-03-31 17:00:00,
2013-03-31 11:05:00,65.6,31.6,30.01,SSE,153,1.0,2.0,28,0.00,,,0.00,Wunderground v.1.15,2013-03-31 17:05:00,
2013-03-31 11:10:00,66.3,31.3,30.01,SSE,153,1.0,3.0,27,0.00,,,0.00,Wunderground v.1.15,2013-03-31 17:10:00,
2013-03-31 11:15:00,66.7,31.6,30.01,SW,219,1.0,5.0,27,0.00,,,0.00,Wunderground v.1.15,2013-03-31 17:15:00,
2013-03-31 11:20:00,66.7,30.7,30.01,WSW,244,2.0,2.0,26,0.00,,,0.00,Wunderground v.1.15,2013-03-31 17:20:00,
2013-03-31 11:25:00,67.0,31.0,30.01,SW,225,2.0,4.0,26,0.00,,,0.00,Wunderground v.1.15,2013-03-31 17:25:00,
2013-03-31 11:30:00,66.8,30.8,30.01,South,175,3.0,7.0,26,0.00,,,0.00,Wunderground v.1.15,2013-03-31 17:30:00,
2013-03-31 11:35:00,67.3,30.2,30.01,WSW,248,3.0,7.0,25,0.00,,,0.00,Wunderground v.1.15,2013-03-31 17:35:00,
2013-03-31 11:40:00,67.6,30.5,30.01,South,183,3.0,3.0,25,0.00,,,0.00,Wunderground v.1.15,2013-03-31 17:40:00,
2013-03-31 11:45:00,67.8,30.7,30.01,SW,217,3.0,3.0,25,0.00,,,0.00,Wunderground v.1.15,2013-03-31 17:45:00,
2013-03-31 11:50:00,67.5,29.4,30.00,South,186,3.0,4.0,24,0.00,,,0.00,Wunderground v.1.15,2013-03-31 17:50:00,
2013-03-31 11:55:00,67.2,30.2,30.00,SW,220,4.0,4.0,25,0.00,,,0.00,Wunderground v.1.15,2013-03-31 17:55:00,
2013-03-31 12:00:00,67.4,29.3,30.00,South,188,3.0,4.0,24,0.00,,,0.00,Wunderground v.1.15,2013-03-31 18:00:00,
2013-03-31 12:05:00,67.3,29.2,30.00,WSW,237,2.0,4.0,24,0.00,,,0.00,Wunderground v.1.15,2013-03-31 18:05:00,
2013-03-31 12:15:00,67.8,29.7,30.00,WNW,289,3.0,4.0,24,0.00,,,0.00,Wunderground v.1.15,2013-03-31 18:15:00,
2013-03-31 12:20:00,67.5,28.4,30.00,SSW,209,3.0,3.0,23,0.00,,,0.00,Wunderground v.1.15,2013-03-31 18:20:00,
2013-03-31 12:25:00,67.9,28.7,30.00,WSW,250,4.0,4.0,23,0.00,,,0.00,Wunderground v.1.15,2013-03-31 18:25:00,
2013-03-31 12:30:00,68.1,28.9,30.00,SW,218,3.0,9.0,23,0.00,,,0.00,Wunderground v.1.15,2013-03-31 18:30:00,
2013-03-31 12:35:00,68.1,28.9,30.00,SSW,205,2.0,9.0,23,0.00,,,0.00,Wunderground v.1.15,2013-03-31 18:35:00,
2013-03-31 12:40:00,68.6,29.3,29.99,SW,217,2.0,2.0,23,0.00,,,0.00,Wunderground v.1.15,2013-03-31 18:40:00,
2013-03-31 12:45:00,69.3,28.8,29.99,SW,215,2.0,4.0,22,0.00,,,0.00,Wunderground v.1.15,2013-03-31 18:45:00,
2013-03-31 12:50:00,69.7,30.2,29.99,SSW,199,2.0,2.0,23,0.00,,,0.00,Wunderground v.1.15,2013-03-31 18:50:00,
2013-03-31 12:55:00,70.2,28.4,29.99,SSE,161,3.0,3.0,21,0.00,,,0.00,Wunderground v.1.15,2013-03-31 18:55:00,
2013-03-31 13:00:00,69.0,27.4,29.98,NE,54,2.0,3.0,21,0.00,,,0.00,Wunderground v.1.15,2013-03-31 19:00:00,
2013-03-31 13:05:00,68.1,28.9,29.98,ESE,103,2.0,3.0,23,0.00,,,0.00,Wunderground v.1.15,2013-03-31 19:05:00,
2013-03-31 13:10:00,69.3,28.8,29.98,SW,219,2.0,6.0,22,0.00,,,0.00,Wunderground v.1.15,2013-03-31 19:10:00,
2013-03-31 13:15:00,70.3,28.5,29.98,WSW,242,2.0,6.0,21,0.00,,,0.00,Wunderground v.1.15,2013-03-31 19:15:00,
2013-03-31 13:20:00,70.4,27.4,29.97,NNE,19,2.0,4.0,20,0.00,,,0.00,Wunderground v.1.15,2013-03-31 19:20:00,
2013-03-31 13:25:00,70.3,28.5,29.97,North,5,2.0,4.0,21,0.00,,,0.00,Wunderground v.1.15,2013-03-31 19:25:00,
2013-03-31 13:30:00,70.8,28.9,29.96,SSW,198,2.0,11.0,21,0.00,,,0.00,Wunderground v.1.15,2013-03-31 19:30:00,
2013-03-31 13:35:00,70.7,28.8,29.96,SSW,196,3.0,11.0,21,0.00,,,0.00,Wunderground v.1.15,2013-03-31 19:35:00,
2013-03-31 13:40:00,70.6,27.5,29.96,SSW,199,3.0,3.0,20,0.00,,,0.00,Wunderground v.1.15,2013-03-31 19:40:00,
2013-03-31 13:45:00,70.6,27.5,29.96,SSW,196,2.0,3.0,20,0.00,,,0.00,Wunderground v.1.15,2013-03-31 19:45:00,
2013-03-31 13:50:00,70.6,27.5,29.95,SSW,200,2.0,2.0,20,0.00,,,0.00,Wunderground v.1.15,2013-03-31 19:50:00,
2013-03-31 13:55:00,71.3,26.9,29.95,South,184,1.0,4.0,19,0.00,,,0.00,Wunderground v.1.15,2013-03-31 19:55:00,
2013-03-31 14:00:00,71.8,27.3,29.95,SW,229,2.0,2.0,19,0.00,,,0.00,Wunderground v.1.15,2013-03-31 20:00:00,
2013-03-31 14:05:00,72.1,27.5,29.95,SSW,210,2.0,2.0,19,0.00,,,0.00,Wunderground v.1.15,2013-03-31 20:05:00,
2013-03-31 14:15:00,72.1,27.5,29.94,NW,317,2.0,2.0,19,0.00,,,0.00,Wunderground v.1.15,2013-03-31 20:15:00,
2013-03-31 14:20:00,71.4,28.2,29.94,SSW,201,2.0,10.0,20,0.00,,,0.00,Wunderground v.1.15,2013-03-31 20:20:00,
2013-03-31 14:25:00,70.7,27.6,29.94,WSW,242,4.0,10.0,20,0.00,,,0.00,Wunderground v.1.15,2013-03-31 20:25:00,
2013-03-31 14:30:00,70.6,28.7,29.94,SW,227,3.0,3.0,21,0.00,,,0.00,Wunderground v.1.15,2013-03-31 20:30:00,
2013-03-31 14:35:00,71.6,28.4,29.94,SW,226,2.0,3.0,20,0.00,,,0.00,Wunderground v.1.15,2013-03-31 20:35:00,
2013-03-31 14:40:00,72.4,29.0,29.93,NNE,18,1.0,1.0,20,0.00,,,0.00,Wunderground v.1.15,2013-03-31 20:40:00,
2013-03-31 14:45:00,71.9,28.6,29.93,NNE,18,1.0,1.0,20,0.00,,,0.00,Wunderground v.1.15,2013-03-31 20:45:00,
2013-03-31 14:50:00,72.3,29.0,29.92,NE,51,1.0,1.0,20,0.00,,,0.00,Wunderground v.1.15,2013-03-31 20:50:00,
2013-03-31 14:55:00,71.6,28.4,29.92,SSW,199,1.0,1.0,20,0.00,,,0.00,Wunderground v.1.15,2013-03-31 20:55:00,
2013-03-31 15:00:00,71.4,28.2,29.92,SSW,196,2.0,5.0,20,0.00,,,0.00,Wunderground v.1.15,2013-03-31 21:00:00,
2013-03-31 15:05:00,71.5,28.3,29.91,South,190,2.0,5.0,20,0.00,,,0.00,Wunderground v.1.15,2013-03-31 21:05:00,
2013-03-31 15:10:00,71.6,27.1,29.91,SSE,153,2.0,2.0,19,0.00,,,0.00,Wunderground v.1.15,2013-03-31 21:10:00,
2013-03-31 15:15:00,71.5,28.3,29.91,SSW,206,1.0,5.0,20,0.00,,,0.00,Wunderground v.1.15,2013-03-31 21:15:00,
2013-03-31 15:20:00,71.9,28.6,29.91,SW,217,2.0,6.0,20,0.00,,,0.00,Wunderground v.1.15,2013-03-31 21:20:00,
2013-03-31 15:25:00,72.6,27.9,29.90,SW,218,3.0,6.0,19,0.00,,,0.00,Wunderground v.1.15,2013-03-31 21:25:00,
2013-03-31 15:30:00,72.8,28.1,29.90,ESE,121,3.0,9.0,19,0.00,,,0.00,Wunderground v.1.15,2013-03-31 21:30:00,
2013-03-31 15:35:00,73.1,27.0,29.90,SSW,211,2.0,9.0,18,0.00,,,0.00,Wunderground v.1.15,2013-03-31 21:35:00,
2013-03-31 15:40:00,74.1,27.9,29.89,SSW,207,2.0,2.0,18,0.00,,,0.00,Wunderground v.1.15,2013-03-31 21:40:00,
2013-03-31 15:45:00,74.6,26.9,29.89,SSW,213,2.0,2.0,17,0.00,,,0.00,Wunderground v.1.15,2013-03-31 21:45:00,
2013-03-31 15:50:00,74.1,26.5,29.89,SW,223,3.0,6.0,17,0.00,,,0.00,Wunderground v.1.15,2013-03-31 21:50:00,
2013-03-31 15:55:00,73.2,27.1,29.89,SE,142,2.0,6.0,18,0.00,,,0.00,Wunderground v.1.15,2013-03-31 21:55:00,
2013-03-31 16:00:00,73.0,27.0,29.89,SSE,150,1.0,2.0,18,0.00,,,0.00,Wunderground v.1.15,2013-03-31 22:00:00,
2013-03-31 16:05:00,73.3,27.2,29.88,SSE,161,1.0,2.0,18,0.00,,,0.00,Wunderground v.1.15,2013-03-31 22:05:00,
2013-03-31 16:10:00,73.9,27.7,29.88,South,184,1.0,2.0,18,0.00,,,0.00,Wunderground v.1.15,2013-03-31 22:10:00,
2013-03-31 16:15:00,73.7,26.1,29.88,SE,146,4.0,4.0,17,0.00,,,0.00,Wunderground v.1.15,2013-03-31 22:15:00,
2013-03-31 16:20:00,73.8,27.6,29.88,SSW,205,4.0,4.0,18,0.00,,,0.00,Wunderground v.1.15,2013-03-31 22:20:00,
2013-03-31 16:25:00,74.2,26.5,29.88,SSW,197,3.0,5.0,17,0.00,,,0.00,Wunderground v.1.15,2013-03-31 22:25:00,
2013-03-31 16:30:00,73.9,26.3,29.87,SSW,194,3.0,9.0,17,0.00,,,0.00,Wunderground v.1.15,2013-03-31 22:30:00,
2013-03-31 16:35:00,74.1,26.5,29.87,SSE,148,2.0,9.0,17,0.00,,,0.00,Wunderground v.1.15,2013-03-31 22:35:00,
2013-03-31 16:40:00,74.1,26.5,29.87,South,180,3.0,3.0,17,0.00,,,0.00,Wunderground v.1.15,2013-03-31 22:40:00,
2013-03-31 16:45:00,73.9,26.3,29.87,South,191,3.0,4.0,17,0.00,,,0.00,Wunderground v.1.15,2013-03-31 22:45:00,
2013-03-31 16:50:00,73.4,25.9,29.87,SSW,197,3.0,3.0,17,0.00,,,0.00,Wunderground v.1.15,2013-03-31 22:50:00,
2013-03-31 16:55:00,73.3,27.2,29.87,SE,144,2.0,3.0,18,0.00,,,0.00,Wunderground v.1.15,2013-03-31 22:55:00,
2013-03-31 17:00:00,74.0,26.4,29.86,WSW,249,1.0,13.0,17,0.00,,,0.00,Wunderground v.1.15,2013-03-31 23:00:00,
2013-03-31 17:05:00,74.2,26.5,29.86,SW,214,3.0,13.0,17,0.00,,,0.00,Wunderground v.1.15,2013-03-31 23:05:00,
2013-03-31 17:10:00,74.0,26.4,29.86,South,187,3.0,4.0,17,0.00,,,0.00,Wunderground v.1.15,2013-03-31 23:10:00,
2013-03-31 17:15:00,73.5,26.0,29.86,SW,234,3.0,4.0,17,0.00,,,0.00,Wunderground v.1.15,2013-03-31 23:15:00,
2013-03-31 17:20:00,73.8,26.2,29.86,SW,232,3.0,4.0,17,0.00,,,0.00,Wunderground v.1.15,2013-03-31 23:20:00,
2013-03-31 17:25:00,73.7,26.1,29.86,South,191,4.0,4.0,17,0.00,,,0.00,Wunderground v.1.15,2013-03-31 23:25:00,
2013-03-31 17:30:00,73.4,25.9,29.85,SW,217,3.0,3.0,17,0.00,,,0.00,Wunderground v.1.15,2013-03-31 23:30:00,
2013-03-31 17:35:00,73.3,27.2,29.85,South,175,2.0,4.0,18,0.00,,,0.00,Wunderground v.1.15,2013-03-31 23:35:00,
2013-03-31 17:40:00,72.8,25.4,29.85,SSW,206,2.0,2.0,17,0.00,,,0.00,Wunderground v.1.15,2013-03-31 23:40:00,
2013-03-31 17:45:00,72.2,26.3,29.85,South,179,2.0,2.0,18,0.00,,,0.00,Wunderground v.1.15,2013-03-31 23:45:00,
2013-03-31 17:50:00,72.2,26.3,29.84,SSW,206,3.0,4.0,18,0.00,,,0.00,Wunderground v.1.15,2013-03-31 23:50:00,
2013-03-31 17:55:00,72.2,26.3,29.84,SSW,194,3.0,4.0,18,0.00,,,0.00,Wunderground v.1.15,2013-03-31 23:55:00,
2013-03-31 18:00:00,72.4,26.5,29.84,SSW,194,1.0,1.0,18,0.00,,,0.00,Wunderground v.1.15,2013-04-01 00:00:00,
2013-03-31 18:05:00,72.2,26.3,29.84,SW,226,1.0,1.0,18,0.00,,,0.00,Wunderground v.1.15,2013-04-01 00:05:00,
2013-03-31 18:10:00,71.8,26.0,29.84,SSW,210,1.0,1.0,18,0.00,,,0.00,Wunderground v.1.15,2013-04-01 00:10:00,
2013-03-31 18:15:00,71.9,26.1,29.84,SSW,206,0.0,1.0,18,0.00,,,0.00,Wunderground v.1.15,2013-04-01 00:15:00,
2013-03-31 18:20:00,71.9,26.1,29.84,SSW,194,1.0,4.0,18,0.00,,,0.00,Wunderground v.1.15,2013-04-01 00:20:00,
2013-03-31 18:25:00,71.7,25.9,29.84,SSW,202,2.0,4.0,18,0.00,,,0.00,Wunderground v.1.15,2013-04-01 00:25:00,
2013-03-31 18:30:00,71.6,25.8,29.84,SSW,194,2.0,2.0,18,0.00,,,0.00,Wunderground v.1.15,2013-04-01 00:30:00,
2013-03-31 18:35:00,71.3,25.6,29.84,South,181,2.0,2.0,18,0.00,,,0.00,Wunderground v.1.15,2013-04-01 00:35:00,
2013-03-31 18:40:00,71.3,25.6,29.84,South,181,1.0,1.0,18,0.00,,,0.00,Wunderground v.1.15,2013-04-01 00:40:00,
2013-03-31 18:45:00,71.2,25.5,29.84,South,182,1.0,1.0,18,0.00,,,0.00,Wunderground v.1.15,2013-04-01 00:45:00,
2013-03-31 18:50:00,71.0,25.3,29.84,South,180,1.0,1.0,18,0.00,,,0.00,Wunderground v.1.15,2013-04-01 00:50:00,
2013-03-31 18:55:00,70.5,24.9,29.84,South,180,0.0,1.0,18,0.00,,,0.00,Wunderground v.1.15,2013-04-01 00:55:00,
2013-03-31 19:00:00,70.1,25.9,29.84,South,185,1.0,1.0,19,0.00,,,0.00,Wunderground v.1.15,2013-04-01 01:00:00,
2013-03-31 19:05:00,69.7,25.6,29.84,South,184,1.0,2.0,19,0.00,,,0.00,Wunderground v.1.15,2013-04-01 01:05:00,
2013-03-31 19:10:00,69.4,25.3,29.84,South,178,0.0,0.0,19,0.00,,,0.00,Wunderground v.1.15,2013-04-01 01:10:00,
2013-03-31 19:15:00,69.1,25.1,29.84,South,178,0.0,0.0,19,0.00,,,0.00,Wunderground v.1.15,2013-04-01 01:15:00,
2013-03-31 19:20:00,68.9,24.9,29.84,South,178,0.0,0.0,19,0.00,,,0.00,Wunderground v.1.15,2013-04-01 01:20:00,
2013-03-31 19:25:00,68.7,24.7,29.84,South,174,1.0,1.0,19,0.00,,,0.00,Wunderground v.1.15,2013-04-01 01:25:00,
2013-03-31 19:30:00,68.5,24.6,29.84,South,172,2.0,2.0,19,0.00,,,0.00,Wunderground v.1.15,2013-04-01 01:30:00,
2013-03-31 19:35:00,68.3,24.4,29.84,South,172,1.0,2.0,19,0.00,,,0.00,Wunderground v.1.15,2013-04-01 01:35:00,
2013-03-31 19:40:00,68.1,25.5,29.84,South,172,1.0,1.0,20,0.00,,,0.00,Wunderground v.1.15,2013-04-01 01:40:00,
2013-03-31 19:45:00,67.8,25.2,29.84,South,172,0.0,1.0,20,0.00,,,0.00,Wunderground v.1.15,2013-04-01 01:45:00,
2013-03-31 19:50:00,67.6,25.1,29.84,South,172,0.0,0.0,20,0.00,,,0.00,Wunderground v.1.15,2013-04-01 01:50:00,
2013-03-31 19:55:00,67.3,24.8,29.84,South,172,0.0,0.0,20,0.00,,,0.00,Wunderground v.1.15,2013-04-01 01:55:00,
2013-03-31 20:00:00,67.0,24.6,29.85,South,172,0.0,0.0,20,0.00,,,0.00,Wunderground v.1.15,2013-04-01 02:00:00,
2013-03-31 20:05:00,66.6,25.4,29.85,South,172,0.0,0.0,21,0.00,,,0.00,Wunderground v.1.15,2013-04-01 02:05:00,
2013-03-31 20:10:00,66.1,25.0,29.85,South,172,0.0,0.0,21,0.00,,,0.00,Wunderground v.1.15,2013-04-01 02:10:00,
2013-03-31 20:15:00,65.5,25.6,29.85,South,172,0.0,0.0,22,0.00,,,0.00,Wunderground v.1.15,2013-04-01 02:15:00,
2013-03-31 20:20:00,64.9,25.1,29.86,South,172,0.0,0.0,22,0.00,,,0.00,Wunderground v.1.15,2013-04-01 02:20:00,
2013-03-31 20:25:00,64.3,24.6,29.86,South,172,0.0,0.0,22,0.00,,,0.00,Wunderground v.1.15,2013-04-01 02:25:00,
2013-03-31 20:30:00,63.6,25.1,29.86,South,172,0.0,5.0,23,0.00,,,0.00,Wunderground v.1.15,2013-04-01 02:30:00,
2013-03-31 20:35:00,63.1,24.7,29.86,South,172,0.0,5.0,23,0.00,,,0.00,Wunderground v.1.15,2013-04-01 02:35:00,
2013-03-31 20:40:00,62.6,25.3,29.86,South,172,0.0,0.0,24,0.00,,,0.00,Wunderground v.1.15,2013-04-01 02:40:00,
2013-03-31 20:45:00,62.2,24.9,29.86,South,172,0.0,0.0,24,0.00,,,0.00,Wunderground v.1.15,2013-04-01 02:45:00,
2013-03-31 20:50:00,62.0,24.8,29.86,South,172,0.0,0.0,24,0.00,,,0.00,Wunderground v.1.15,2013-04-01 02:50:00,
2013-03-31 20:55:00,61.6,24.4,29.86,South,172,0.0,0.0,24,0.00,,,0.00,Wunderground v.1.15,2013-04-01 02:55:00,
2013-03-31 21:00:00,61.3,25.1,29.87,South,172,0.0,0.0,25,0.00,,,0.00,Wunderground v.1.15,2013-04-01 03:00:00,
2013-03-31 21:05:00,61.0,24.9,29.87,South,172,0.0,0.0,25,0.00,,,0.00,Wunderground v.1.15,2013-04-01 03:05:00,
2013-03-31 21:10:00,60.9,24.8,29.87,South,172,0.0,0.0,25,0.00,,,0.00,Wunderground v.1.15,2013-04-01 03:10:00,
2013-03-31 21:15:00,61.0,24.9,29.87,South,172,0.0,0.0,25,0.00,,,0.00,Wunderground v.1.15,2013-04-01 03:15:00,
2013-03-31 21:20:00,60.9,24.8,29.87,South,172,0.0,0.0,25,0.00,,,0.00,Wunderground v.1.15,2013-04-01 03:20:00,
2013-03-31 21:25:00,60.6,25.5,29.87,South,172,0.0,0.0,26,0.00,,,0.00,Wunderground v.1.15,2013-04-01 03:25:00,
2013-03-31 21:30:00,60.4,25.3,29.87,South,172,0.0,0.0,26,0.00,,,0.00,Wunderground v.1.15,2013-04-01 03:30:00,
2013-03-31 21:35:00,60.3,25.2,29.87,South,172,0.0,0.0,26,0.00,,,0.00,Wunderground v.1.15,2013-04-01 03:35:00,
2013-03-31 21:40:00,60.0,25.0,29.87,South,172,0.0,0.0,26,0.00,,,0.00,Wunderground v.1.15,2013-04-01 03:40:00,
2013-03-31 21:45:00,59.6,24.6,29.87,South,172,0.0,0.0,26,0.00,,,0.00,Wunderground v.1.15,2013-04-01 03:45:00,
2013-03-31 21:50:00,59.1,25.1,29.88,South,172,0.0,0.0,27,0.00,,,0.00,Wunderground v.1.15,2013-04-01 03:50:00,
2013-03-31 21:55:00,59.0,25.0,29.88,South,172,0.0,0.0,27,0.00,,,0.00,Wunderground v.1.15,2013-04-01 03:55:00,
2013-03-31 22:00:00,59.2,24.3,29.88,South,172,0.0,0.0,26,0.00,,,0.00,Wunderground v.1.15,2013-04-01 04:00:00,
2013-03-31 22:05:00,59.6,24.6,29.88,South,172,0.0,1.0,26,0.00,,,0.00,Wunderground v.1.15,2013-04-01 04:05:00,
2013-03-31 22:10:00,59.9,24.9,29.88,South,172,0.0,0.0,26,0.00,,,0.00,Wunderground v.1.15,2013-04-01 04:10:00,
2013-03-31 22:15:00,60.0,24.0,29.88,South,172,0.0,0.0,25,0.00,,,0.00,Wunderground v.1.15,2013-04-01 04:15:00,
2013-03-31 22:20:00,60.1,24.1,29.88,South,172,0.0,0.0,25,0.00,,,0.00,Wunderground v.1.15,2013-04-01 04:20:00,
2013-03-31 22:25:00,60.2,24.2,29.88,South,172,0.0,0.0,25,0.00,,,0.00,Wunderground v.1.15,2013-04-01 04:25:00,
2013-03-31 22:35:00,60.5,24.5,29.88,South,171,0.0,1.0,25,0.00,,,0.00,Wunderground v.1.15,2013-04-01 04:35:00,
2013-03-31 22:40:00,60.5,24.5,29.88,South,171,0.0,0.0,25,0.00,,,0.00,Wunderground v.1.15,2013-04-01 04:40:00,
2013-03-31 22:45:00,60.3,24.3,29.88,South,171,0.0,0.0,25,0.00,,,0.00,Wunderground v.1.15,2013-04-01 04:45:00,
2013-03-31 22:50:00,60.0,24.0,29.88,South,171,0.0,0.0,25,0.00,,,0.00,Wunderground v.1.15,2013-04-01 04:50:00,
2013-03-31 22:55:00,59.7,23.8,29.88,South,171,0.0,0.0,25,0.00,,,0.00,Wunderground v.1.15,2013-04-01 04:55:00,
2013-03-31 23:00:00,59.0,24.1,29.87,South,171,0.0,0.0,26,0.00,,,0.00,Wunderground v.1.15,2013-04-01 05:00:00,
2013-03-31 23:05:00,59.0,24.1,29.87,South,171,0.0,0.0,26,0.00,,,0.00,Wunderground v.1.15,2013-04-01 05:05:00,
2013-03-31 23:10:00,58.5,24.6,29.87,South,171,0.0,0.0,27,0.00,,,0.00,Wunderground v.1.15,2013-04-01 05:10:00,
2013-03-31 23:15:00,58.2,24.3,29.87,South,171,0.0,0.0,27,0.00,,,0.00,Wunderground v.1.15,2013-04-01 05:15:00,
2013-03-31 23:20:00,58.3,23.5,29.87,South,171,0.0,0.0,26,0.00,,,0.00,Wunderground v.1.15,2013-04-01 05:20:00,
2013-03-31 23:25:00,58.5,24.6,29.88,South,171,0.0,0.0,27,0.00,,,0.00,Wunderground v.1.15,2013-04-01 05:25:00,
2013-03-31 23:30:00,58.5,24.6,29.88,South,171,0.0,3.0,27,0.00,,,0.00,Wunderground v.1.15,2013-04-01 05:30:00,
2013-03-31 23:35:00,58.3,24.4,29.88,South,171,0.0,3.0,27,0.00,,,0.00,Wunderground v.1.15,2013-04-01 05:35:00,
2013-03-31 23:40:00,58.0,25.0,29.88,South,171,0.0,0.0,28,0.00,,,0.00,Wunderground v.1.15,2013-04-01 05:40:00,
2013-03-31 23:45:00,57.6,24.7,29.88,South,171,0.0,0.0,28,0.00,,,0.00,Wunderground v.1.15,2013-04-01 05:45:00,
2013-03-31 23:50:00,57.4,25.4,29.88,South,171,0.0,1.0,29,0.00,,,0.00,Wunderground v.1.15,2013-04-01 05:50:00,
2013-03-31 23:55:00,57.3,25.3,29.88,South,171,0.0,1.0,29,0.00,,,0.00,Wunderground v.1.15,2013-04-01 05:55:00,